Regional Weather Roundup
Issued by NWS

Home | Current Version | Previous Version | Text Only | Print | Product List | Glossary On
Versions: 1 2 3 4 5 6 7 8 9 10 11 12 13 14 15 16 17 18 19 20 21 22 23 24 25 26 27 28 29 30 31 32 33 34 35 36 37 38 39 40 41 42 43 44 45 46 47 48 49 50
000
ASUS43 KDMX 060408
RWRIA

WEATHER ROUNDUP FOR IOWA
NATIONAL WEATHER SERVICE DES MOINES IA
1100 PM CDT THU MAY 05 2016

NOTE: "FAIR" INDICATES FEW OR NO CLOUDS BELOW 12,000 FEET WITH NO
SIGNIFICANT WEATHER AND/OR OBSTRUCTIONS TO VISIBILITY.

* - THESE STATIONS ARE NOT NWS STATIONS...THUS NOT UNDER NWS
QUALITY CONTROL.  THEY ALSO DO NOT REPORT WEATHER SUCH
AS PRECIPITATION OR FOG.

IAZ001>003-012>014-020>022-031>034-043>046-060500-
   NORTHWEST IOWA

CITY           SKY/WX    TMP DP  RH WIND       PRES   REMARKS
CARROLL *      PTCLDY    59  41  51 SW8       29.99S
CHEROKEE *     CLEAR     59  43  55 S3        29.98S
DENISON *      CLEAR     61  41  48 S3        29.98S
LE MARS *      CLEAR     59  45  58 S8        29.98S
ORANGE CITY *  CLEAR     61  45  55 S6        29.97F
SHELDON *      CLEAR     61  43  51 S9        29.95F
SIOUX CITY     CLEAR     58  45  62 SE6       29.97S
SPENCER        CLEAR     61  40  45 SW6       29.97S
STORM LAKE *   CLEAR     61  41  48 SW7       29.99S
$$

IAZ055>058-069>071-079>083-090>094-060500-
   SOUTHWEST IOWA

CITY           SKY/WX    TMP DP  RH WIND       PRES   REMARKS
ATLANTIC *     CLEAR     54  43  66 SW3       30.01S
AUDUBON *      CLEAR     55  43  62 CALM      30.02S
CLARINDA *       N/A     54  48  82 MISG      30.04S
COUNCIL BLFS * CLEAR     63  41  45 S7        30.01S
CRESTON *      CLEAR     57  43  58 S7        30.03F
HARLAN  *      CLEAR     59  41  51 S3        30.04S
LAMONI         CLEAR     57  41  55 SW7       30.03S
RED OAK *      CLEAR     55  45  67 CALM      30.02F
SHENANDOAH *   CLEAR     59  45  58 CALM      30.03S
$$

IAZ047>049-059>061-072>074-084-060500-
   CENTRAL IOWA

CITY           SKY/WX    TMP DP  RH WIND       PRES   REMARKS
AMES           CLEAR     56  40  55 S8        29.99S
ANKENY *       CLEAR     54  43  66 S3        30.00S
BOONE *        CLEAR     63  37  39 S7        29.98F
CHARITON *     CLEAR     54  39  58 S7        30.02S
DES MOINES     CLEAR     58  38  47 S7        30.01R
GRINNELL*      CLEAR     55  36  47 SW8       30.00F
KNOXVILLE *    CLEAR     57  36  44 S6        30.00S
MARSHALLTOWN   CLEAR     56  37  49 SW7       29.98S
NEWTON *       CLEAR     57  36  44 SW6       30.00S
PELLA *        CLEAR     57  36  44 CALM      30.02S
PERRY *          N/A     57  45  62 S8        29.99F
$$

IAZ004>006-015-016-023>025-035-036-060500-
   NORTH CENTRAL IOWA

CITY           SKY/WX    TMP DP  RH WIND       PRES   REMARKS
ALGONA *       CLEAR     61  43  51 SW10      29.97S
CLARION *      CLEAR     57  37  47 S7        29.97F
ESTHERVILLE    CLEAR     60  42  51 SW9       29.96S
FORT DODGE *   CLEAR     57  39  51 CALM      29.99S
MASON CITY     CLEAR     55  41  59 SW5       29.98R
FOREST CITY *  CLEAR     52  41  66 CALM      29.97S
WEBSTER CITY * CLEAR     55  41  58 SW9       29.96F
IOWA FALLS *     N/A     59  39  47 SW8       29.99S
$$

IAZ007>011-017>019-026>030-037>042-050>054-066-060500-
   NORTHEAST IOWA

CITY           SKY/WX    TMP DP  RH WIND       PRES   REMARKS
CEDAR RAPIDS   CLEAR     53  38  56 CALM      29.99S
CHARLES CITY * CLEAR     57  36  44 S9        29.97F
CLINTON *      CLEAR     52  41  66 SW3       30.00S
DECORAH *      CLEAR     59  36  41 S5        29.95S
DUBUQUE        CLEAR     51  39  63 SW3       29.98F
MONTICELLO *   CLEAR     50  41  71 CALM      29.98F
OELWEIN *      CLEAR     55  37  50 SW9       29.98F
WATERLOO       CLEAR     56  38  50 S3        29.97S
$$

IAZ064-065-067-068-078-060500-
   EAST CENTRAL IOWA

CITY           SKY/WX    TMP DP  RH WIND       PRES   REMARKS
DAVENPORT      CLEAR     51  38  60 S3        30.01S
IOWA CITY      CLEAR     52  39  61 CALM      30.01S
MT. PLEASANT * CLEAR     57  37  47 CALM      30.01S
MUSCATINE *    CLEAR     54  41  62 S3        30.01R
QUAD CITIES    CLEAR     47  41  80 CALM      29.99S
$$

IAZ062-063-075>077-085>089-095>099-060500-
   SOUTHEAST IOWA

CITY           SKY/WX    TMP DP  RH WIND       PRES   REMARKS
BURLINGTON     CLEAR     51  38  60 CALM      30.01S
FAIRFIELD *    CLEAR     55  34  44 SW5       30.01S
FORT MADISON * CLEAR     52  41  66 CALM      30.03S
KEOKUK *       CLEAR     50  45  81 CALM      30.02R
OSKALOOSA *      N/A     54  37  54 S5        30.01F
OTTUMWA        CLEAR     52  37  56 SW5       30.01S
WASHINGTON *   CLEAR     54  37  54 W6        30.02S
$$

ABBREVIATIONS USED IN REMARKS
   TC - TEMPERATURES IN CELSIUS
  WCI - WIND CHILL INDEX
   HX - HEAT INDEX
  VSB - VISIBILITY
$$




USA.gov is the U.S. government's official web portal to all federal, state and local government web resources and services.